Temperature
17 17 17 17 16 16 16 16 16 16 15 15 15 15 15 15 14 14 14 14 14 14 14 14 14 14 14 14 14 14 14 14 14 14 14 13 13 13 13 13 13 13 13
16 16 16 16 16 16 16 16 16 15 15 15 15 15 15 14 14 14 14 14 14 14 14 14 14 14 13 13 13 13 13 13 13 13 13 13 13 13 13 13 13 13 13
16 16 16 16 16 16 15 15 15 15 15 15 15 15 14 14 14 14 14 14 14 14 14 14 13 13 13 13 13 13 13 13 13 13 13 13 12 12 13 13 13 13 12
16 16 16 16 15 15 15 15 15 15 15 15 15 15 14 14 14 14 14 14 14 14 13 13 13 13 13 13 13 13 13 13 13 13 13 13 12 12 12 12 12 12 12
16 16 16 15 15 15 15 15 15 15 14 14 14 14 14 14 14 14 14 14 13 13 13 13 13 13 13 13 13 13 13 13 13 13 12 12 12 12 12 11 12 12 12
16 16 16 15 15 15 15 15 15 14 14 14 14 14 14 14 13 14 14 14 13 13 13 13 13 13 13 13 13 13 13 12 12 12 12 12 12 12 12 11 11 11 12
15 15 16 15 15 15 15 14 14 14 14 14 14 14 13 13 13 13 13 13 13 13 13 13 13 13 13 13 13 12 12 12 12 12 12 12 12 12 11 11 11 11 11
15 15 15 15 15 15 14 14 14 14 14 14 14 13 13 13 13 13 13 13 13 13 13 12 12 12 12 12 12 12 12 12 12 12 12 12 12 11 11 11 11 11 11
15 15 15 15 15 15 14 14 14 14 14 13 13 13 13 13 13 13 13 12 12 12 12 12 12 12 12 12 12 12 12 12 12 12 12 11 11 11 11 11 11 11 10
15 15 15 15 15 15 14 14 14 14 14 13 13 13 13 12 12 12 12 12 12 12 12 12 12 12 12 12 12 12 12 12 12 11 11 11 11 11 11 11 11 11 10
15 15 15 15 15 14 14 14 14 14 13 13 13 13 13 12 12 12 12 12 12 12 12 12 12 12 12 12 11 11 11 11 11 11 11 11 11 11 11 11 10 10 10
15 15 15 15 14 14 14 14 14 13 13 13 13 13 12 12 12 12 12 12 12 12 12 11 11 11 11 11 11 11 11 11 11 11 11 11 11 11 10 10 10 10 10
15 15 15 14 14 14 14 14 14 13 13 13 13 13 12 12 12 12 12 11 11 11 11 11 11 11 11 11 11 11 11 11 11 11 11 11 11 10 10 10 10 10 10
15 14 14 14 14 14 14 14 13 13 13 13 13 12 12 12 11 11 11 11 11 11 11 11 11 11 11 10 10 10 10 10 10 10 10 10 10 10 10 10 10 9 9
14 14 14 14 14 13 13 13 13 13 13 13 13 12 12 11 11 11 11 11 11 11 11 11 10 10 10 10 10 10 10 10 10 10 10 10 10 10 9 9 9 9 9
14 14 14 14 13 13 13 13 13 13 13 12 12 12 12 11 11 11 11 10 10 10 10 10 10 10 10 10 10 9 9 9 9 9 9 10 10 9 9 9 9 9 9
14 14 14 13 13 13 13 13 13 13 12 12 12 12 11 11 11 11 10 10 10 10 10 10 10 9 9 9 9 9 9 9 9 9 9 9 9 9 9 9 9 8 8
13 13 13 13 13 13 13 12 12 12 12 12 11 11 11 11 10 10 10 10 10 10 9 9 9 9 9 9 9 8 8 8 8 8 8 8 8 8 8 8 8 8 8
13 13 13 13 13 12 12 12 12 11 11 11 11 11 11 10 10 10 10 9 9 9 9 9 9 8 8 8 8 8 8 8 8 8 7 8 8 8 8 8 8 8 8
13 13 13 12 12 12 12 11 11 11 11 11 11 10 10 10 10 10 9 9 9 9 9 8 8 8 8 8 7 7 7 7 7 7 7 7 7 7 7 7 7 7 7
13 12 12 12 12 11 11 11 11 11 11 11 10 10 10 10 10 9 9 9 9 8 8 8 8 7 7 7 7 7 7 7 7 7 7 7 7 7 7 7 6 6 6
12 12 12 11 11 11 11 11 11 11 10 10 10 10 10 9 9 9 9 8 8 8 7 7 7 7 7 6 6 6 6 6 6 6 6 6 6 6 6 6 6 6 6
11 11 11 11 11 11 10 10 10 10 10 10 10 9 9 9 9 8 8 8 8 7 7 7 7 6 6 6 6 6 6 6 6 6 6 6 5 5 5 5 5 5 5
11 11 10 10 10 10 10 10 10 10 10 10 9 9 9 8 8 8 8 7 7 7 7 6 6 6 6 6 6 6 6 6 5 5 5 5 5 5 5 5 5 5 5
10 10 10 10 10 10 10 10 9 9 9 9 9 8 8 8 8 7 7 7 7 7 6 6 6 6 6 6 6 5 5 5 5 5 5 5 5 5 5 5 5 4 4
10 10 10 10 10 10 10 10 9 9 9 8 8 8 8 8 7 7 7 7 6 6 6 6 6 6 6 5 5 5 5 5 4 4 4 4 4 4 4 4 4 4 4
Wind_Speed
2 1 1 2 3 3 3 2 3 2 2 1 1 1 1 0 0 1 2 3 3 4 4 3 3 3 2 2 2 2 3 2 2 2 3 3 3 3 3 3 4 5 6
0 1 1 2 2 2 2 1 2 1 1 1 1 1 1 1 1 0 2 2 3 4 4 3 2 2 2 2 2 2 1 2 2 2 2 3 4 4 3 3 3 4 5
4 3 2 2 2 2 1 1 1 1 1 2 2 2 3 2 2 1 1 1 2 3 3 4 3 2 2 1 1 1 2 1 1 2 2 2 1 3 3 3 3 4 4
3 3 2 2 2 2 1 1 1 1 1 2 3 3 2 1 1 1 1 1 1 2 2 3 3 3 2 2 1 1 1 2 1 1 1 1 2 1 2 3 3 4 4
4 4 4 3 3 2 1 1 1 1 1 1 2 3 2 1 0 0 0 0 1 1 1 2 3 2 2 2 1 1 1 1 2 1 1 1 1 1 1 2 4 4 3
3 3 2 2 1 1 1 1 1 1 1 1 1 3 3 2 1 0 0 0 1 1 1 1 2 2 2 2 1 1 2 1 2 1 1 1 1 1 1 1 2 3 3
4 3 2 2 2 1 1 1 1 0 1 1 1 1 3 3 2 1 1 1 0 1 2 1 0 1 2 2 2 2 2 2 2 1 1 1 1 1 1 1 1 2 3
4 4 4 3 2 2 2 1 1 1 0 0 0 1 1 2 1 1 1 2 2 2 1 0 0 0 1 1 2 1 1 1 1 1 1 0 1 1 1 2 1 1 2
3 3 3 3 2 3 3 3 2 1 1 1 0 0 1 1 1 1 1 1 1 1 1 1 1 1 1 1 1 1 1 1 1 1 1 1 1 1 1 1 2 2 1
2 2 3 2 2 3 3 3 3 3 3 2 2 1 1 1 1 1 1 1 1 1 1 1 1 1 1 1 1 1 1 1 1 1 1 0 1 0 0 1 1 1 3
3 3 3 3 2 2 3 3 3 3 2 2 2 1 1 1 1 1 1 1 1 0 0 1 1 1 1 1 1 1 1 1 1 1 1 1 1 0 0 0 1 1 1
3 3 2 1 1 2 2 3 3 3 3 3 3 2 2 2 1 1 1 1 1 1 1 1 1 1 1 1 1 1 1 2 2 2 1 2 1 1 1 1 1 1 1
1 1 1 1 2 2 2 3 3 4 3 3 3 3 3 3 3 2 1 1 1 1 1 1 1 1 1 1 1 1 2 2 2 2 2 2 1 1 1 1 1 1 1
1 1 1 1 2 2 2 3 3 3 3 3 3 4 4 4 3 2 1 1 1 1 1 1 1 1 0 1 1 1 1 1 2 2 2 3 3 3 3 2 2 1 1
1 1 2 2 2 2 2 2 2 2 2 3 3 4 4 3 2 2 1 1 1 1 1 1 1 0 0 0 0 1 1 1 1 2 2 3 3 3 2 2 2 2 1
3 3 3 3 3 3 3 2 2 2 2 2 3 3 3 3 3 2 2 2 1 1 1 1 1 1 0 1 1 0 0 0 1 2 2 2 2 3 3 3 2 2 2
4 4 4 4 4 4 4 4 3 2 2 3 2 2 3 4 3 3 2 2 2 1 1 1 1 1 1 1 1 1 1 0 1 2 2 2 2 2 2 3 2 2 3
4 4 4 4 4 3 2 2 1 2 2 3 3 3 3 3 3 3 3 2 2 2 1 1 1 1 1 1 0 1 1 1 1 2 2 3 3 3 2 1 1 2 2
4 4 4 3 2 2 2 1 1 1 2 2 3 3 4 4 4 4 3 2 2 2 1 1 1 1 2 1 0 1 1 0 2 2 2 3 3 4 1 1 0 2 3
3 2 1 1 1 2 1 2 2 2 2 3 3 3 4 5 5 4 3 2 2 2 2 1 1 1 2 2 1 1 1 1 2 2 3 3 3 3 1 1 1 1 3
3 2 2 2 2 2 2 2 2 3 4 2 2 2 3 4 4 4 3 3 2 2 2 1 1 1 2 2 2 1 1 1 1 1 2 2 3 2 1 1 1 2 1
2 2 2 2 2 2 3 3 4 4 2 2 2 2 2 2 3 4 3 3 3 2 2 1 1 1 2 2 2 2 1 1 2 2 2 2 3 2 2 1 2 2 2
2 2 2 2 2 2 3 4 4 2 2 2 3 2 2 2 3 4 4 3 3 3 2 2 2 2 2 2 2 2 2 1 1 1 2 2 3 2 2 3 3 2 2
2 2 2 2 3 3 3 4 3 2 3 3 3 2 2 2 2 2 3 3 3 3 3 3 3 3 2 2 1 1 1 1 1 1 1 2 2 2 2 2 2 1 0
3 2 3 4 4 3 3 3 2 3 3 3 2 2 2 3 2 2 2 3 4 5 5 5 4 4 4 4 4 2 1 1 1 0 1 1 1 2 1 1 1 1 1
3 3 3 4 4 3 3 3 2 3 4 3 3 2 2 2 2 2 1 1 2 4 4 5 5 4 4 4 4 3 2 2 1 1 0 1 1 1 2 2 2 2 2
Wind_Direction
246 128 116 106 97 86 90 88 84 79 111 106 132 146 184 240 328 66 101 118 118 111 104 97 85 84 79 75 72 70 61 42 29 51 20 8 21 29 20 17 21 16 16
260 140 125 102 106 110 106 99 98 103 117 147 145 152 159 168 205 50 66 97 116 123 122 119 116 105 91 74 70 76 79 39 39 83 64 7 353 0 6 4 11 3 6
208 201 176 161 134 132 164 181 170 131 86 88 97 75 56 40 32 25 21 30 104 125 127 134 137 126 125 133 116 105 110 98 22 57 110 113 266 317 335 348 359 355 358
197 182 176 173 184 194 177 139 126 98 94 98 114 128 131 128 256 249 244 351 80 120 135 134 137 139 140 148 171 124 128 124 99 25 45 115 163 151 326 332 341 349 352
196 183 183 190 196 187 168 134 99 82 83 99 132 132 118 138 130 36 95 50 20 63 118 138 144 151 160 169 158 113 110 128 143 142 117 73 50 86 152 304 326 339 337
186 183 177 161 146 113 99 73 89 69 74 85 100 146 144 135 119 154 174 309 334 332 322 164 162 170 171 175 172 143 122 119 120 124 133 145 148 182 160 219 295 312 312
175 170 163 167 164 139 132 108 115 47 38 75 75 165 164 162 170 201 206 200 299 313 293 285 187 173 179 172 151 138 135 132 125 139 152 168 190 175 164 169 251 291 302
185 186 194 191 196 196 193 186 187 214 199 111 116 122 149 165 190 197 214 212 222 243 251 227 144 101 142 158 151 149 164 143 149 154 151 163 234 183 172 167 165 311 317
197 203 204 195 198 207 208 204 205 220 233 224 195 119 137 170 199 209 213 239 252 249 225 174 148 99 94 123 146 150 193 153 162 178 176 203 256 227 211 178 173 173 237
219 221 215 212 212 210 206 200 200 209 214 207 211 227 216 216 203 180 217 257 287 286 213 195 153 130 87 85 142 156 195 143 177 176 155 245 256 257 214 191 184 179 193
228 228 225 220 213 204 196 200 208 213 213 208 213 217 213 213 189 190 245 248 253 262 191 207 184 179 167 147 125 177 181 178 225 218 192 248 240 228 249 171 156 184 175
236 232 218 200 205 214 216 212 214 213 220 212 200 205 196 180 191 229 250 256 250 224 192 171 173 197 190 176 165 193 212 204 226 244 225 251 257 256 232 189 202 222 206
265 252 188 202 225 235 238 234 227 222 219 199 194 197 191 191 207 221 226 220 224 219 192 162 163 200 203 200 204 197 218 224 230 233 227 239 217 246 246 231 231 241 249
245 217 222 241 250 247 250 250 253 234 218 197 197 203 203 204 210 214 207 203 203 188 186 194 202 206 228 216 210 196 222 253 262 258 240 236 224 226 228 236 234 237 247
286 257 246 255 265 270 276 269 261 250 222 199 203 212 205 194 187 187 191 191 196 194 180 161 153 140 177 231 263 223 205 235 287 294 276 252 247 244 234 244 233 212 218
259 263 259 247 247 250 256 258 251 243 201 192 208 200 178 174 175 175 166 157 163 152 132 134 148 149 250 351 8 109 134 193 297 299 301 290 272 278 281 277 252 216 215
254 249 245 240 242 242 236 232 233 217 188 189 195 191 177 175 182 172 149 157 173 151 141 162 145 200 256 318 23 111 127 153 257 283 296 304 311 310 269 284 291 276 276
258 256 249 247 251 248 244 239 211 187 185 188 195 196 183 180 171 160 163 174 173 167 176 201 208 230 271 313 28 153 135 217 262 271 278 273 285 290 263 262 307 299 298
246 242 244 242 239 239 224 182 180 186 185 203 208 201 187 180 174 176 183 180 169 169 183 193 192 217 277 317 330 129 157 248 283 284 287 285 276 289 298 142 250 313 315
254 245 250 233 220 235 179 156 177 191 223 228 219 203 187 177 180 186 184 182 177 185 175 178 198 212 267 296 284 140 165 242 291 308 302 297 298 318 346 166 180 269 292
261 233 204 224 233 211 174 186 201 227 240 228 195 185 191 182 175 171 169 167 169 161 158 170 264 262 270 287 286 234 181 210 254 292 304 304 319 333 357 18 216 260 295
267 230 212 244 245 197 184 210 232 243 234 183 169 178 185 183 169 160 159 157 157 159 175 181 274 293 291 290 279 263 240 212 208 252 277 301 329 356 18 21 344 6 40
282 264 223 248 268 229 203 221 244 234 190 180 185 186 176 174 163 163 164 165 169 177 194 196 221 263 282 293 295 286 273 274 241 250 281 320 348 14 14 7 11 34 48
296 283 235 240 257 252 242 241 242 207 180 182 188 183 174 177 169 173 179 182 191 194 202 207 218 234 251 264 269 264 280 295 281 284 321 347 3 11 2 5 359 4 342
301 289 256 253 259 257 252 254 225 180 177 186 186 187 188 188 192 199 203 201 210 204 205 212 208 208 232 245 226 193 204 209 242 59 34 16 359 346 332 330 324 325 337
289 287 281 273 271 261 253 244 219 187 178 187 196 196 193 195 191 188 247 251 222 221 216 209 204 220 224 221 214 214 217 203 156 115 181 262 266 274 285 289 298 291 294
Height
1529 1530 1530 1531 1532 1533 1533 1534 1534 1534 1534 1534 1535 1535 1535 1536 1536 1536 1537 1537 1537 1537 1537 1537 1537 1537 1537 1536 1536 1536 1536 1535 1535 1535 1534 1534 1533 1533 1532 1532 1532 1531 1530
1527 1528 1529 1530 1530 1531 1532 1533 1533 1533 1533 1534 1534 1534 1534 1535 1535 1536 1536 1537 1537 1537 1537 1537 1537 1537 1536 1536 1536 1536 1535 1535 1535 1535 1534 1534 1535 1533 1533 1532 1532 1531 1530
1526 1527 1528 1528 1529 1530 1531 1531 1532 1532 1533 1533 1533 1533 1534 1534 1534 1534 1535 1536 1536 1536 1536 1536 1536 1536 1536 1536 1535 1535 1535 1535 1535 1535 1535 1534 1534 1533 1533 1532 1532 1531 1530
1524 1525 1526 1527 1528 1529 1530 1531 1531 1531 1531 1532 1532 1532 1532 1532 1532 1533 1534 1535 1535 1535 1535 1535 1535 1535 1535 1535 1535 1535 1535 1535 1534 1534 1534 1535 1534 1534 1533 1532 1531 1530 1529
1523 1524 1525 1526 1527 1528 1529 1529 1530 1530 1530 1530 1530 1530 1531 1531 1531 1532 1533 1533 1534 1534 1534 1534 1534 1534 1534 1534 1534 1534 1534 1534 1533 1533 1533 1533 1533 1533 1532 1531 1530 1529 1529
1521 1523 1525 1526 1526 1527 1528 1528 1528 1528 1529 1529 1529 1529 1529 1530 1530 1531 1531 1531 1532 1532 1533 1533 1533 1533 1533 1533 1533 1533 1533 1533 1532 1532 1532 1532 1532 1532 1531 1530 1529 1528 1528
1519 1521 1523 1524 1525 1525 1526 1527 1527 1527 1527 1527 1528 1528 1528 1528 1529 1529 1529 1530 1530 1530 1530 1531 1531 1531 1531 1531 1532 1532 1532 1531 1531 1531 1531 1531 1531 1530 1530 1529 1528 1527 1527
1518 1519 1521 1522 1524 1524 1525 1525 1526 1526 1526 1526 1526 1526 1527 1527 1527 1527 1528 1528 1528 1528 1529 1529 1529 1529 1530 1530 1530 1530 1530 1530 1530 1530 1530 1530 1530 1529 1529 1528 1528 1526 1525
1517 1518 1520 1521 1522 1523 1523 1524 1524 1525 1525 1525 1525 1525 1525 1525 1526 1526 1526 1526 1526 1527 1527 1527 1527 1527 1528 1528 1528 1529 1529 1529 1529 1529 1528 1528 1528 1528 1527 1527 1526 1526 1524
1516 1517 1518 1519 1520 1521 1522 1522 1523 1523 1523 1523 1523 1524 1524 1524 1525 1525 1524 1525 1525 1525 1525 1525 1525 1525 1525 1526 1526 1527 1527 1527 1527 1527 1527 1527 1526 1526 1525 1525 1524 1524 1523
1514 1515 1516 1517 1518 1519 1520 1520 1521 1521 1521 1521 1522 1522 1522 1523 1523 1523 1523 1523 1523 1523 1523 1523 1523 1523 1523 1524 1524 1524 1525 1525 1525 1525 1525 1525 1524 1524 1523 1523 1522 1522 1521
1513 1514 1514 1515 1516 1516 1517 1517 1518 1518 1519 1519 1519 1520 1520 1521 1521 1521 1521 1521 1521 1521 1521 1521 1521 1521 1521 1521 1521 1521 1522 1522 1522 1522 1522 1522 1522 1522 1521 1521 1520 1520 1519
1512 1512 1512 1513 1513 1514 1514 1515 1515 1516 1516 1517 1517 1517 1518 1518 1519 1519 1519 1519 1519 1519 1519 1519 1518 1518 1518 1518 1518 1518 1519 1519 1519 1519 1519 1519 1519 1519 1519 1518 1518 1517 1516
1510 1510 1510 1511 1511 1512 1512 1512 1512 1513 1513 1514 1514 1515 1515 1516 1516 1516 1516 1516 1517 1516 1516 1516 1516 1516 1516 1516 1516 1516 1516 1516 1516 1516 1517 1517 1517 1517 1516 1516 1515 1515 1514
1509 1508 1508 1509 1509 1509 1509 1509 1509 1510 1510 1511 1511 1512 1512 1513 1514 1514 1514 1514 1514 1514 1514 1514 1514 1514 1514 1514 1513 1513 1513 1513 1513 1513 1514 1514 1514 1514 1514 1513 1512 1512 1511
1506 1506 1507 1507 1507 1506 1506 1506 1506 1507 1507 1508 1508 1509 1510 1510 1511 1512 1512 1512 1512 1512 1512 1512 1512 1511 1511 1511 1511 1511 1510 1510 1510 1510 1511 1511 1511 1511 1510 1510 1510 1509 1508
1504 1504 1504 1504 1504 1504 1504 1504 1504 1504 1505 1505 1506 1506 1507 1508 1508 1509 1509 1509 1510 1510 1509 1509 1509 1509 1508 1508 1508 1508 1508 1508 1507 1507 1507 1507 1507 1507 1507 1506 1506 1506 1505
1502 1502 1501 1501 1501 1501 1501 1501 1502 1502 1502 1503 1503 1504 1504 1505 1505 1506 1506 1507 1507 1507 1507 1506 1506 1506 1506 1506 1505 1505 1505 1505 1505 1505 1504 1504 1504 1504 1503 1503 1502 1502 1502
1500 1499 1499 1499 1499 1499 1499 1499 1499 1499 1500 1500 1501 1501 1501 1502 1502 1503 1503 1504 1504 1504 1504 1504 1504 1504 1503 1503 1503 1503 1502 1502 1502 1501 1501 1501 1500 1500 1500 1499 1499 1498 1498
1497 1496 1496 1496 1496 1496 1496 1496 1496 1496 1496 1497 1497 1498 1499 1499 1499 1500 1500 1501 1501 1501 1501 1501 1501 1501 1501 1501 1501 1500 1500 1499 1499 1498 1498 1497 1497 1496 1496 1496 1495 1494 1493
1494 1493 1493 1493 1493 1493 1493 1493 1493 1493 1494 1494 1494 1495 1496 1496 1496 1497 1498 1498 1499 1499 1498 1499 1498 1498 1498 1498 1498 1497 1497 1496 1495 1495 1494 1494 1493 1492 1492 1492 1491 1491 1490
1490 1490 1490 1489 1490 1490 1490 1489 1490 1490 1491 1491 1491 1492 1493 1493 1493 1494 1494 1495 1495 1495 1495 1495 1495 1495 1495 1495 1494 1494 1494 1493 1492 1492 1491 1490 1490 1489 1489 1488 1488 1487 1487
1488 1487 1487 1486 1486 1486 1486 1486 1486 1487 1487 1487 1488 1488 1489 1490 1490 1490 1491 1491 1492 1492 1492 1492 1492 1492 1492 1492 1492 1491 1491 1490 1489 1488 1488 1487 1487 1486 1486 1485 1484 1484 1483
1486 1485 1484 1483 1483 1483 1483 1483 1483 1483 1483 1483 1484 1484 1485 1486 1486 1487 1487 1487 1487 1488 1488 1488 1488 1488 1488 1488 1488 1488 1487 1487 1486 1485 1485 1484 1484 1483 1483 1482 1481 1480 1479
1483 1482 1481 1480 1480 1480 1480 1480 1480 1480 1480 1480 1480 1481 1481 1482 1482 1482 1483 1483 1484 1484 1484 1484 1485 1485 1485 1485 1485 1485 1484 1483 1483 1482 1481 1481 1480 1479 1479 1478 1478 1477 1476
1481 1479 1479 1478 1477 1477 1476 1476 1476 1476 1476 1476 1476 1477 1477 1478 1478 1478 1479 1479 1480 1480 1481 1481 1482 1481 1482 1482 1482 1481 1481 1480 1480 1479 1477 1477 1476 1476 1475 1474 1474 1473 1473